This demonstration page uses our WeatherBlox Daily Observations layout. Learn more.

Left ArrowRight Arrow

Hourly Observations for April 24, 2017

Temp ( °F °C ) Dew Point ( °F °C ) Humidity (%) Winds ( mph kmh ) Pressure ( in mb ) Visibility ( mi km ) Precip ( " mm )
12:31 am 00:31 Cloudy with Light Rain 55 12.8 53 11.7 93 93 NE 14 22 30.03 1017 6 10 0.00 0.03
12:59 am 00:59 Cloudy with Drizzle 56 13.3 53 11.7 90 90 ENE 15 24 30.03 1017 7 11 0.00 0.03
1:59 am 01:59 Cloudy with Drizzle 57 13.9 54 12.2 90 90 ENE 15 24 30.01 1016 8 13 0.00 0.03
2:59 am 02:59 Cloudy 57 13.9 54 12.2 90 90 ENE 16 26 29.97 1015 9 14 0.00 0.03
3:20 am 03:20 Cloudy 57 13.9 54 12.2 90 90 ENE 16 26 29.97 1015 8 13 0.00 0.00
3:59 am 03:59 Cloudy with Light Rain 58 14.4 54 12.2 87 87 NE 16 26 29.96 1015 9 14 0.00 0.03
4:59 am 04:59 Cloudy 58 14.4 54 12.2 87 87 ENE 15 24 29.96 1015 10 16 0.00 0.03
5:32 am 05:32 Cloudy with Light Rain 58 14.4 54 12.2 87 87 ENE 14 22 29.97 1015 8 13 0.00 0.03
5:59 am 05:59 Cloudy with Light Rain 58 14.4 55 12.8 90 90 NE 15 24 29.96 1014 9 14 0.01 0.25
6:40 am 06:40 Cloudy with Light Rain 58 14.4 55 12.8 90 90 NE 16 26 29.97 1015 3 4 0.03 0.76
6:47 am 06:47 Cloudy with Light Rain 58 14.4 55 12.8 90 90 NE 13 20 29.97 1015 4 6 0.03 0.76
6:59 am 06:59 Cloudy with Light Rain 58 14.4 55 12.8 90 90 NE 16 26 29.97 1015 6 10 0.03 0.76
7:59 am 07:59 Cloudy with Mist and Fog 58 14.4 55 12.8 90 90 NE 15 24 29.97 1015 5 8 0.00 0.03
8:20 am 08:20 Cloudy with Mist and Fog 59 15 55 12.8 87 87 ENE 13 20 29.97 1015 5 8 0.00 0.00
8:59 am 08:59 Cloudy with Light Rain 59 15 56 13.3 90 90 E 14 22 29.97 1015 4 6 0.00 0.03
9:59 am 09:59 Cloudy with Haze 61 16.1 55 12.8 81 81 ENE 13 20 29.96 1014 5 8 0.01 0.25
10:59 am 10:59 Cloudy with Light Rain 61 16.1 59 15 93 93 ENE 14 22 29.96 1014 4 6 0.05 1.27
11:59 am 11:59 Cloudy with Mist and Fog 62 16.7 60 15.6 93 93 E 14 22 29.94 1014 4 6 0.01 0.25
12:07 pm 12:07 Cloudy with Mist and Fog 62 16.7 60 15.6 93 93 E 13 20 29.94 1014 4 6 0.00 0.00
12:59 pm 12:59 Cloudy with Mist and Fog 63 17.2 60 15.6 90 90 ENE 17 28 29.94 1014 3 5 0.00 0.00
1:22 pm 13:22 Cloudy with Mist and Fog 62 16.7 60 15.6 93 93 ENE 13 20 29.94 1014 3 4 0.00 0.00
1:42 pm 13:42 Cloudy with Mist and Fog 62 16.7 60 15.6 93 93 ENE 14 22 29.94 1014 3 5 0.00 0.00
1:59 pm 13:59 Cloudy with Mist and Fog 62 16.7 60 15.6 93 93 ENE 10 17 29.92 1013 3 5 0.00 0.00
2:17 pm 14:17 Cloudy with Mist and Fog 62 16.7 60 15.6 93 93 ENE 13 20 29.91 1013 3 4 0.00 0.03
2:30 pm 14:30 Cloudy with Light Rain 61 16.1 59 15 93 93 ENE 18 30 29.91 1013 2 2 0.02 0.51
2:59 pm 14:59 Cloudy with Light Rain 61 16.1 59 15 93 93 ENE 14 22 29.90 1013 2 2 0.03 0.76
3:37 pm 15:37 Cloudy with Light Rain 60 15.6 58 14.4 93 93 ENE 16 26 29.88 1012 2 3 0.06 1.52
3:46 pm 15:46 Cloudy with Light Rain 60 15.6 58 14.4 93 93 ENE 14 22 29.88 1012 2 3 0.06 1.52
3:59 pm 15:59 Cloudy with Mist and Fog 60 15.6 58 14.4 93 93 ENE 16 26 29.88 1012 2 3 0.06 1.52
4:38 pm 16:38 Cloudy with Mist and Fog 59 15 58 14.4 96 96 ENE 18 30 29.88 1012 2 3 0.00 0.00
4:48 pm 16:48 Cloudy with Mist and Fog 59 15 58 14.4 96 96 ENE 16 26 29.88 1012 3 4 0.00 0.00
4:59 pm 16:59 Cloudy with Mist and Fog 59 15 58 14.4 96 96 ENE 16 26 29.87 1012 3 4 0.00 0.00
5:25 pm 17:25 Cloudy with Mist and Fog 59 15 58 14.4 96 96 ENE 18 30 29.88 1012 3 5 0.00 0.00
5:59 pm 17:59 Cloudy with Mist and Fog 59 15 58 14.4 96 96 ENE 15 24 29.88 1012 3 4 0.00 0.00
6:25 pm 18:25 Cloudy with Mist and Fog 59 15 58 14.4 96 96 ENE 15 24 29.88 1012 1 1 0.00 0.00
6:53 pm 18:53 Cloudy with Light Rain 59 15 57 14 94 94 ENE 16 26 29.88 1012 1 1 0.01 0.25
6:59 pm 18:59 Cloudy with Mist and Fog 59 15 58 14.4 96 96 ENE 16 26 29.87 1012 1 1 0.01 0.25
7:15 pm 19:15 Cloudy with Mist and Fog 59 15 58 14.4 96 96 ENE 14 22 29.88 1012 1 1 0.00 0.00
7:37 pm 19:37 Cloudy with Light Rain 59 15 58 14.4 96 96 E 16 26 29.88 1012 3 4 0.00 0.03
7:59 pm 19:59 Cloudy with Mist and Fog 59 15 58 14.4 96 96 ENE 13 20 29.86 1011 3 4 0.00 0.03
8:50 pm 20:50 Cloudy with Mist and Fog 59 15 58 14.4 96 96 ENE 14 22 29.88 1012 4 6 0.00 0.00
8:59 pm 20:59 Cloudy with Mist and Fog 59 15 58 14.4 96 96 ENE 14 22 29.87 1011 4 6 0.00 0.00
9:59 pm 21:59 Cloudy with Mist and Fog 59 15 58 14.4 96 96 ENE 14 22 29.87 1012 5 8 0.00 0.00
10:59 pm 22:59 Cloudy with Mist and Fog 60 15.6 58 14.4 93 93 ENE 13 20 29.85 1011 4 6 0.00 0.00
11:59 pm 23:59 Cloudy 60 15.6 58 14.4 93 93 ENE 14 22 29.83 1010 7 11 0.00 0.00

Powered by AerisWeather